Location: Newark
(49.8348°N, 24.0280°E)
Time: 03:57:56
(UTC+00:00)

Transit 2A - Pass Details

Date: 29 January 2020
Orbit: 600 x 959 km, 66.7° (Epoch: 18 February)

Event Time Altitude Azimuth Distance (km) Brightness Sun altitude
Rises 02:33:53 0° 318° (NW) 2,986 - -33.4°
Reaches altitude 10° 02:36:12 10° 311° (NW) 2,114 - -33.1°
Maximum altitude 02:40:40 41° 242° (WSW) 1,041 - -32.3°
Drops below altitude 10° 02:45:34 10° 174° (S) 2,310 - -31.6°
Exits shadow 02:47:24 - 169° (SSE) 2,993 9.1 -31.3°
Sets 02:48:12 0° 167° (SSE) 3,297 9.3 -31.2°
